Weather History for Branson, MO

Change the Weather History Date:

Sunday, March 17, 2013

  Actual Average (KHRO) Record (KHRO)
Temperature  
Mean Temperature 42 °F 49 °F  
Max Temperature 46 °F 60 °F 85 °F (1982)
Min Temperature 37 °F 38 °F 14 °F (1900)
Degree Days  
Heating Degree Days 24 16  
Month to date heating degree days 314  
Since 1 July heating degree days 3486  
Cooling Degree Days 0 0  
Month to date cooling degree days 0  
Year to date cooling degree days 0  
Moisture  
Dew Point 37 °F    
Average Humidity 89    
Maximum Humidity 100    
Minimum Humidity 61    
Precipitation  
Precipitation 0.00 in 0.13 in 1.86 in (1987)
Month to date precipitation 1.97  
Year to date precipitation 7.17  
Snow  
Snow 0.00 in 0.10 in 13.00 in (1988)
Month to date snowfall 1.7  
Since 1 July snowfall 10.9  
Snow Depth -    
Sea Level Pressure  
Sea Level Pressure 29.83 in    
Wind  
Wind Speed 8 mph (East)    
Max Wind Speed 15 mph    
Max Gust Speed 21 mph    
Visibility 4 miles    
Events Fog , Rain , Thunderstorm    
T = Trace of Precipitation, MM = Missing Value Source: NWS Daily Summary

Daily Weather History Graph

Daily Weather History Graph

Search for Another Location

Airport:

Trip Planner

Search our weather history database for the weather conditions in past years. The results will help you decide how hot, cold, wet, or windy it might be!

Date:

Astronomy

Mar. 17, 2013 Rise Set
Actual Time 7:20 AM CDT 7:22 PM CDT
Civil Twilight 6:54 AM CDT 7:47 PM CDT
Nautical Twilight 6:24 AM CDT 8:18 PM CDT
Astronomical Twilight 5:54 AM CDT 8:48 PM CDT
Moon 10:42 AM CDT (3/17) 12:22 AM CDT (3/17)
Length of Visible Light 12h 53m
Length of Day
12h 01m
Waxing Crescent, 31% of the Moon is Illuminated
Mar 17
Waxing Crescent
Mar 19
First Quarter
Mar 27
Full
Apr 2
Last Quarter
Apr 10
New

Hourly Weather History & Observations

Time (CDT) Temp. Windchill Dew Point Humidity Pressure Visibility Wind Dir Wind Speed Gust Speed Precip Events Conditions
12:15 AM 46.4 °F 43.5 °F 35.6 °F 66% 29.90 in 10.0 mi ENE 5.8 mph - N/A   Overcast
12:35 AM 44.6 °F 41.4 °F 35.6 °F 71% 29.89 in 10.0 mi ENE 5.8 mph - N/A   Overcast
12:55 AM 44.6 °F 41.4 °F 35.6 °F 71% 29.89 in 10.0 mi ENE 5.8 mph - N/A   Mostly Cloudy
1:15 AM 44.6 °F 40.7 °F 35.6 °F 71% 29.89 in 9.0 mi NE 6.9 mph - N/A   Scattered Clouds
1:35 AM 44.6 °F 40.7 °F 35.6 °F 71% 29.89 in 9.0 mi NE 6.9 mph - N/A   Mostly Cloudy
1:55 AM 44.6 °F 40.7 °F 35.6 °F 71% 29.89 in 7.0 mi NE 6.9 mph - N/A   Overcast
2:15 AM 44.6 °F 39.7 °F 35.6 °F 71% 29.90 in 7.0 mi NE 9.2 mph - N/A   Overcast
2:35 AM 42.8 °F 37.5 °F 35.6 °F 76% 29.88 in 7.0 mi NE 9.2 mph - N/A   Overcast
2:55 AM 42.8 °F 38.6 °F 35.6 °F 76% 29.89 in 7.0 mi NE 6.9 mph - N/A   Overcast
3:15 AM 42.8 °F 38.0 °F 35.6 °F 76% 29.88 in 7.0 mi ENE 8.1 mph - N/A   Mostly Cloudy
3:35 AM 42.8 °F 38.0 °F 35.6 °F 76% 29.88 in 7.0 mi ENE 8.1 mph - N/A   Overcast
3:55 AM 42.8 °F 38.6 °F 35.6 °F 76% 29.88 in 7.0 mi ENE 6.9 mph - N/A   Overcast
4:15 AM 42.8 °F 38.6 °F 35.6 °F 76% 29.89 in 7.0 mi ENE 6.9 mph - N/A   Overcast
4:35 AM 42.8 °F 37.0 °F 35.6 °F 76% 29.89 in 6.0 mi ENE 10.4 mph - N/A Rain Light Rain
4:55 AM 42.8 °F 38.0 °F 35.6 °F 76% 29.89 in 6.0 mi ENE 8.1 mph - N/A   Haze
5:15 AM 42.8 °F 38.6 °F 35.6 °F 76% 29.88 in 6.0 mi East 6.9 mph - N/A   Haze
5:35 AM 41.0 °F 37.1 °F 35.6 °F 81% 29.88 in 6.0 mi ENE 5.8 mph - N/A   Haze
5:55 AM 41.0 °F 38.0 °F 35.6 °F 81% 29.89 in 6.0 mi ENE 4.6 mph - N/A   Haze
6:15 AM 41.0 °F 35.8 °F 35.6 °F 81% 29.91 in 6.0 mi NE 8.1 mph - N/A   Haze
6:55 AM 41.0 °F 35.2 °F 28.4 °F 61% 29.91 in 5.0 mi ENE 9.2 mph - N/A Rain Light Rain
7:45 AM 39.2 °F 34.2 °F 37.4 °F 93% 29.95 in 1.5 mi ENE 6.9 mph - N/A Rain Light Rain
8:45 AM 37.4 °F 29.8 °F 37.4 °F 100% 29.94 in 1.8 mi ENE 11.5 mph 17.3 mph N/A Rain Light Rain
9:45 AM 37.4 °F 29.3 °F 37.4 °F 100% 29.93 in 6.0 mi ESE 12.7 mph 20.7 mph N/A   Overcast
10:45 AM 37.4 °F 28.9 °F 37.4 °F 100% 29.91 in 1.5 mi ESE 13.8 mph 19.6 mph N/A Rain Light Rain
11:10 AM 37.4 °F 29.3 °F 37.4 °F 100% 29.90 in 2.0 mi East 12.7 mph 19.6 mph N/A Rain Light Rain
11:53 AM 37.4 °F 29.3 °F 37.4 °F 100% 29.88 in 6.0 mi ESE 12.7 mph 19.6 mph N/A   Overcast
12:52 PM 37.4 °F 30.8 °F 37.4 °F 100% 29.87 in 1.0 mi East 9.2 mph 18.4 mph N/A Rain Light Rain
1:25 PM 37.4 °F 29.3 °F 37.4 °F 100% 29.84 in 3.0 mi East 12.7 mph 19.6 mph N/A Rain Light Rain
1:45 PM 37.4 °F 28.5 °F 37.4 °F 100% 29.83 in 4.0 mi ESE 15.0 mph 19.6 mph N/A   Overcast
2:45 PM 37.4 °F 29.8 °F 37.4 °F 100% 29.79 in 1.2 mi ESE 11.5 mph - N/A Rain Light Rain
3:45 PM 39.2 °F 31.6 °F 39.2 °F 100% 29.75 in 0.5 mi ESE 12.7 mph 17.3 mph N/A Fog Fog
4:16 PM 39.2 °F 32.0 °F 39.2 °F 100% 29.74 in 1.2 mi ESE 11.5 mph 18.4 mph N/A Rain Light Rain
4:46 PM 39.2 °F 30.8 °F 39.2 °F 100% 29.73 in 1.5 mi ESE 15.0 mph 20.7 mph N/A   Overcast
5:50 PM 39.2 °F 31.6 °F 39.2 °F 100% 29.70 in 0.8 mi ESE 12.7 mph 17.3 mph N/A Rain Light Rain
6:31 PM 39.2 °F 35.0 °F 39.2 °F 100% 29.73 in 1.0 mi East 5.8 mph - N/A Rain , Thunderstorm Light Thunderstorms and Rain
6:57 PM 39.2 °F 34.2 °F 39.2 °F 100% 29.73 in 1.0 mi East 6.9 mph - N/A Rain Light Rain
7:46 PM 39.2 °F 33.0 °F 39.2 °F 100% 29.72 in 4.0 mi East 9.2 mph - N/A Rain Light Rain
8:46 PM 39.2 °F 33.0 °F 39.2 °F 100% 29.72 in 5.0 mi East 9.2 mph - N/A   Overcast
9:15 PM 39.2 °F 32.5 °F 39.2 °F 100% 29.71 in 5.0 mi ESE 10.4 mph - N/A   Overcast
9:35 PM 39.2 °F 33.6 °F 39.2 °F 100% 29.72 in 4.0 mi ESE 8.1 mph - N/A   Overcast
9:55 PM 39.2 °F 35.0 °F 39.2 °F 100% 29.73 in 1.2 mi East 5.8 mph - N/A Thunderstorm Overcast
10:15 PM 39.2 °F 35.9 °F 39.2 °F 100% 29.73 in 0.8 mi East 4.6 mph - N/A   Overcast
10:35 PM 39.2 °F 35.0 °F 39.2 °F 100% 29.73 in 0.5 mi East 5.8 mph - N/A Fog Fog
10:55 PM 39.2 °F 33.6 °F 39.2 °F 100% 29.72 in 0.8 mi ESE 8.1 mph - N/A   Overcast
11:15 PM 39.2 °F 34.2 °F 39.2 °F 100% 29.73 in 1.0 mi East 6.9 mph - N/A   Overcast
11:35 PM 39.2 °F 35.9 °F 39.2 °F 100% 29.73 in 2.0 mi East 4.6 mph - N/A   Overcast
11:55 PM 39.2 °F 34.2 °F 39.2 °F 100% 29.73 in 1.2 mi ESE 6.9 mph - N/A   Overcast